Location: Bletchingley
(51.2333°N, 0.1000°W)
Time: 13:12:36
(UTC+00:00)

Cosmos 2278 Rocket - Pass Details

Date: 18 September 2020
Orbit: 841 x 845 km, 71.0° (Epoch: 22 October)

Event Time Altitude Azimuth Distance (km) Brightness Sun altitude
Exits shadow 21:22:32 18° 47° (NE) 1,955 4.0 -28.3°
Drops below altitude 10° 21:24:02 10° 40° (NE) 2,470 4.7 -28.5°
Sets 21:26:36 0° 34° (NE) 3,410 5.5 -28.8°
